TimeCST,TemperatureF,Dew PointF,Humidity,Sea Level PressureIn,VisibilityMPH,Wind Direction,Wind SpeedMPH,Gust SpeedMPH,PrecipitationIn,Events,Conditions,WindDirDegrees,DateUTC
12:15 AM,37.4,32.0,81,30.16,10.0,ESE,6.9,-,N/A,,Clear,120,2012-12-06 06:15:00
12:35 AM,35.8,31.6,85,30.16,10.0,ESE,6.9,-,N/A,,Clear,110,2012-12-06 06:35:00
12:55 AM,36.1,32.0,85,30.15,10.0,ESE,8.1,-,N/A,,Clear,120,2012-12-06 06:55:00
1:15 AM,37.4,32.0,81,30.15,10.0,ESE,6.9,-,N/A,,Clear,120,2012-12-06 07:15:00
1:35 AM,36.9,31.8,82,30.15,10.0,ESE,8.1,-,N/A,,Clear,120,2012-12-06 07:35:00
1:55 AM,36.7,31.6,82,30.15,10.0,ESE,8.1,-,N/A,,Clear,120,2012-12-06 07:55:00
2:15 AM,36.3,31.5,83,30.15,10.0,ESE,8.1,-,N/A,,Clear,120,2012-12-06 08:15:00
2:35 AM,36.5,31.8,83,30.13,10.0,ESE,9.2,-,N/A,,Clear,120,2012-12-06 08:35:00
2:55 AM,36.5,31.8,83,30.12,10.0,ESE,10.4,-,N/A,,Clear,120,2012-12-06 08:55:00
3:15 AM,36.3,31.8,84,30.11,10.0,ESE,9.2,-,N/A,,Clear,120,2012-12-06 09:15:00
3:35 AM,36.3,32.0,84,30.11,10.0,SE,10.4,-,N/A,,Clear,130,2012-12-06 09:35:00
3:55 AM,36.5,32.0,84,30.10,10.0,ESE,10.4,-,N/A,,Clear,120,2012-12-06 09:55:00
4:15 AM,36.1,32.0,85,30.10,10.0,SE,8.1,-,N/A,,Clear,130,2012-12-06 10:15:00
4:35 AM,35.8,32.0,86,30.10,10.0,SE,6.9,-,N/A,,Clear,130,2012-12-06 10:35:00
4:55 AM,35.6,32.0,87,30.10,10.0,SE,9.2,-,N/A,,Clear,130,2012-12-06 10:55:00
5:15 AM,35.6,32.0,87,30.10,10.0,SE,8.1,-,N/A,,Clear,130,2012-12-06 11:15:00
5:35 AM,35.6,32.0,87,30.09,10.0,ESE,10.4,-,N/A,,Clear,120,2012-12-06 11:35:00
5:55 AM,35.6,32.0,87,30.09,10.0,ESE,9.2,-,N/A,,Clear,120,2012-12-06 11:55:00
6:15 AM,35.2,32.0,88,30.10,10.0,ESE,5.8,-,N/A,,Clear,120,2012-12-06 12:15:00
6:35 AM,35.1,32.2,89,30.10,10.0,ESE,6.9,-,N/A,,Clear,120,2012-12-06 12:35:00
6:55 AM,35.6,32.5,89,30.10,10.0,SE,9.2,-,N/A,,Clear,130,2012-12-06 12:55:00
7:35 AM,36.0,32.9,89,30.10,10.0,SE,8.1,-,N/A,,Clear,130,2012-12-06 13:35:00
7:55 AM,36.7,33.3,87,30.09,10.0,SE,8.1,-,N/A,,Clear,130,2012-12-06 13:55:00
8:15 AM,37.4,33.8,87,30.08,10.0,SE,8.1,-,N/A,,Clear,130,2012-12-06 14:15:00
8:35 AM,38.3,34.2,85,30.08,10.0,SE,11.5,-,N/A,,Clear,130,2012-12-06 14:35:00
8:55 AM,40.1,35.2,83,30.07,10.0,SE,10.4,-,N/A,,Clear,140,2012-12-06 14:55:00
9:15 AM,40.5,35.6,83,30.07,10.0,SE,10.4,-,N/A,,Clear,130,2012-12-06 15:15:00
9:35 AM,41.0,36.0,82,30.07,10.0,SE,8.1,-,N/A,,Clear,140,2012-12-06 15:35:00
9:55 AM,41.9,36.5,81,30.07,10.0,SE,6.9,-,N/A,,Clear,140,2012-12-06 15:55:00
10:15 AM,43.2,37.0,79,30.06,10.0,SE,8.1,-,N/A,,Clear,140,2012-12-06 16:15:00
10:35 AM,44.1,37.2,77,30.05,10.0,SSE,10.4,-,N/A,,Clear,150,2012-12-06 16:35:00
10:55 AM,45.1,37.8,75,30.04,10.0,SSE,8.1,-,N/A,,Clear,150,2012-12-06 16:55:00
11:15 AM,46.0,38.3,74,30.03,10.0,SSE,9.2,-,N/A,,Clear,160,2012-12-06 17:15:00
11:35 AM,47.1,38.8,73,30.02,10.0,South,10.4,-,N/A,,Scattered Clouds,170,2012-12-06 17:35:00
11:55 AM,48.9,40.1,72,30.01,10.0,South,10.4,-,N/A,,Scattered Clouds,170,2012-12-06 17:55:00
12:15 PM,49.1,40.1,71,30.00,10.0,South,9.2,-,N/A,,Scattered Clouds,170,2012-12-06 18:15:00
12:35 PM,48.7,40.1,72,29.99,10.0,South,8.1,-,N/A,,Mostly Cloudy,180,2012-12-06 18:35:00
12:55 PM,48.6,40.5,74,29.99,10.0,South,10.4,-,N/A,,Overcast,190,2012-12-06 18:55:00
1:15 PM,48.6,40.5,74,29.98,10.0,South,9.2,-,N/A,,Overcast,170,2012-12-06 19:15:00
1:35 PM,49.1,40.5,72,29.97,10.0,South,8.1,-,N/A,,Overcast,170,2012-12-06 19:35:00
1:55 PM,49.3,40.3,71,29.96,10.0,SSE,6.9,-,N/A,,Overcast,160,2012-12-06 19:55:00
2:15 PM,49.3,40.3,71,29.95,10.0,SSE,8.1,-,N/A,,Overcast,150,2012-12-06 20:15:00
2:35 PM,49.5,39.7,69,29.95,10.0,South,6.9,-,N/A,,Overcast,170,2012-12-06 20:35:00
2:55 PM,50.0,40.6,70,29.95,10.0,South,5.8,-,N/A,,Overcast,170,2012-12-06 20:55:00
3:15 PM,50.0,40.1,69,29.95,10.0,SSE,4.6,-,N/A,,Overcast,160,2012-12-06 21:15:00
3:35 PM,49.5,40.8,72,29.95,10.0,SE,3.5,-,N/A,,Mostly Cloudy,140,2012-12-06 21:35:00
3:55 PM,49.1,40.5,72,29.95,10.0,SSE,4.6,-,N/A,,Scattered Clouds,150,2012-12-06 21:55:00
4:15 PM,48.4,40.5,74,29.95,10.0,SSE,6.9,-,N/A,,Scattered Clouds,150,2012-12-06 22:15:00
4:55 PM,47.3,40.5,77,29.95,10.0,SE,5.8,-,N/A,,Clear,140,2012-12-06 22:55:00
5:15 PM,46.8,40.5,79,29.95,10.0,SE,4.6,-,N/A,,Clear,140,2012-12-06 23:15:00
6:35 PM,46.8,41.0,80,29.95,10.0,SE,5.8,-,N/A,,Scattered Clouds,140,2012-12-07 00:35:00
6:55 PM,47.3,40.6,78,29.94,10.0,SE,6.9,-,N/A,,Scattered Clouds,130,2012-12-07 00:55:00
7:15 PM,47.5,40.8,78,29.95,10.0,SE,5.8,-,N/A,,Scattered Clouds,140,2012-12-07 01:15:00
7:55 PM,47.3,40.8,78,29.96,10.0,SE,3.5,-,N/A,,Scattered Clouds,140,2012-12-07 01:55:00
8:35 PM,46.9,41.0,80,29.96,10.0,Calm,Calm,-,N/A,,Overcast,0,2012-12-07 02:35:00
8:55 PM,46.2,41.9,85,29.96,10.0,Calm,Calm,-,N/A,,Overcast,0,2012-12-07 02:55:00
9:15 PM,46.4,41.9,84,29.96,10.0,Calm,Calm,-,N/A,,Mostly Cloudy,0,2012-12-07 03:15:00
9:35 PM,46.4,42.1,85,29.96,10.0,Calm,Calm,-,N/A,,Light Drizzle,0,2012-12-07 03:35:00
9:55 PM,46.4,42.3,85,29.96,10.0,ESE,3.5,-,N/A,Rain,Light Rain,110,2012-12-07 03:55:00
10:15 PM,46.2,42.4,87,29.95,10.0,East,5.8,-,N/A,,Scattered Clouds,100,2012-12-07 04:15:00
10:35 PM,46.4,42.3,85,29.95,10.0,SE,3.5,-,N/A,,Scattered Clouds,130,2012-12-07 04:35:00
10:55 PM,45.5,41.9,87,29.95,10.0,Calm,Calm,-,N/A,,Clear,0,2012-12-07 04:55:00
11:15 PM,45.7,41.9,87,29.95,10.0,Calm,Calm,-,N/A,,Clear,0,2012-12-07 05:15:00
11:35 PM,43.9,41.2,90,29.95,10.0,SE,4.6,-,N/A,,Clear,130,2012-12-07 05:35:00
11:55 PM,45.3,42.3,89,29.95,10.0,SE,3.5,-,N/A,,Clear,130,2012-12-07 05:55:00